Torna al catalogo

FENGYUN 1C DEB

AttivoSSO
NORAD 29846·DEBRIS·🇨🇳 China

Lanciato May 10, 1999 da Taiyuan Satellite Launch Center

Loading…

Prossimi Passaggi (prossime 24 ore)

TLE

AggiornatoSource: Space-Track

Epoca: Sep 14, 2026, 21:28 UTC

1 29846U 99025EQ  26257.89459602  .00000140  00000-0  84240-4 0  9996
2 29846  98.6201 297.7539 0083855 227.0839 311.1186 14.19236831 17747

Traccia FENGYUN 1C DEB in tempo reale con AllMySat

Download on the App Store